Voltar ao catálogo

INTELSAT 4-F2

AtivoComunicaçõesGEO
NORAD 4881·PAYLOAD· XX

Lançado Jan 26, 1971 de Cape Canaveral Space Force Station

Loading…

Próximas Passagens

TLE

Source: Space-Track
1  4881U 71006A   26223.95816296 -.00000271  00000-0  00000+0 0  9996
2  4881   4.2041 275.6594 0011568 102.4117  66.9210  0.98839861122055

Acompanhe INTELSAT 4-F2 em tempo real com AllMySat

Download on the App Store